GAOFEN-9 01

Last updated on Fri Oct 04 2024 00:02:25 GMT+0000 (Coordinated Universal Time)

1 40894U 15047A 24277.53642582 .00005625 00000+0 73688-3 0 9991 2 40894 97.7176 328.1177 0029059 18.1686 342.0558 14.80443044488120
UTC large
Height (km)
Speed (km/s)
/
Latitude / Longitude
Inclination (degrees)
Orbital Period (minutes)
Azimuth
Elevation
Range (km)
Doppler Factor

Next 0 passes for location: London (51.5072 / 0.1276)

Sorry there are no passes over London.